Tracking 32136 objects as of 11-Nov-2025
HD Live streaming from Space Station
objects crossing your sky now

STARLINK-32431

Track STARLINK-32431 now!
10-day predictions
STARLINK-32431 is classified as:


NORAD ID: 61256
Int'l Code: 2024-175P
Perigee: 481.3 km
Apogee: 483.4 km
Inclination: 53.2 °
Period: 94.1 minutes
Semi major axis: 6853 km
RCS: Unknown
Launch date: September 25, 2024
Source: United States (US)
Launch site: AIR FORCE WESTERN TEST RANGE (AFWTR)
Your satellite tracking list
Your tracking list is empty




NASA's NSSDC Master Catalog

Two Line Element Set (TLE):
1 61256U 24175P   25315.20908814  .00008256  00000-0  29052-3 0  9999
2 61256  53.1598  24.3723 0001519  77.8434 282.2737 15.30207008 63313
Source of the keplerian elements: AFSPC